KKSNEWCA7 Weather Reports


time (UTC)temp
F
wind
direction
speed
knots
gust
knots
rain 1hr
in
rain 24hr
in
rain mn
in
humidity
%
barometer
mb
20260504235016 81 103 1.7 2.6 0.00 0.00 0.00 44 1002.4
20260504234550 81 103 1.7 2.6 0.00 0.00 0.00 48 1002.4
20260504234016 82 105 1.7 3.5 0.00 0.00 0.00 47 1002.5
20260504233518 82 116 1.7 5.2 0.00 0.00 0.00 36 1002.6
20260504233103 82 119 2.6 5.2 0.00 0.00 0.00 37 1002.6
20260504232517 82 105 1.7 3.5 0.00 0.00 0.00 42 1002.5
20260504232015 83 106 1.7 3.5 0.00 0.00 0.00 42 1002.6
20260504231553 83 107 1.7 3.5 0.00 0.00 0.00 41 1002.5
20260504231016 83 98 1.7 6.1 0.00 0.00 0.00 42 1002.3
20260504230516 83 128 2.6 6.1 0.00 0.00 0.00 30 1002.4
20260504230104 83 132 2.6 7.0 0.00 0.00 0.00 33 1002.6
20260504225516 83 168 2.6 7.0 0.00 0.00 0.00 31 1002.6
20260504225017 83 161 2.6 5.2 0.00 0.00 0.00 34 1002.7
20260504224554 83 153 3.5 6.1 0.00 0.00 0.00 30 1002.6
20260504224019 83 156 3.5 6.1 0.00 0.00 0.00 30 1002.5
20260504223518 83 159 3.5 6.1 0.00 0.00 0.00 31 1002.6
20260504223100 83 149 1.7 4.3 0.00 0.00 0.00 32 1002.6
20260504222521 83 183 1.7 6.1 0.00 0.00 0.00 30 1002.6
20260504222021 83 172 2.6 6.1 0.00 0.00 0.00 30 1002.4
20260504221552 83 155 3.5 5.2 0.00 0.00 0.00 30 1002.3
20260504221014 83 149 3.5 6.1 0.00 0.00 0.00 33 1002.5
20260504220518 83 162 2.6 7.8 0.00 0.00 0.00 30 1002.5
20260504220104 83 155 4.3 7.8 0.00 0.00 0.00 31 1002.5
20260504215515 83 158 3.5 7.0 0.00 0.00 0.00 33 1002.4
20260504215017 83 167 3.5 7.0 0.00 0.00 0.00 30 1002.5
20260504214613 83 169 4.3 7.8 0.00 0.00 0.00 31 1002.5
20260504214019 83 221 4.3 7.8 0.00 0.00 0.00 30 1002.6
20260504213516 83 207 4.3 7.0 0.00 0.00 0.00 33 1002.8
20260504213125 83 206 2.6 7.8 0.00 0.00 0.00 32 1002.7
20260504212517 83 174 5.2 8.7 0.00 0.00 0.00 30 1002.8
20260504212019 83 194 4.3 8.7 0.00 0.00 0.00 30 1002.9
20260504211601 83 182 6.1 8.7 0.00 0.00 0.00 33 1003.0
20260504211017 83 211 6.1 8.7 0.00 0.00 0.00 32 1003.0
20260504210517 83 215 4.3 8.7 0.00 0.00 0.00 33 1003.1
20260504210112 83 193 3.5 8.7 0.00 0.00 0.00 32 1003.2
20260504205515 83 212 5.2 8.7 0.00 0.00 0.00 32 1003.3
20260504205017 83 159 3.5 9.6 0.00 0.00 0.00 32 1003.4
20260504204606 84 148 6.1 8.7 0.00 0.00 0.00 31 1003.5
20260504204020 83 213 3.5 7.8 0.00 0.00 0.00 32 1003.4
20260504203520 83 188 5.2 7.8 0.00 0.00 0.00 33 1003.3
20260504203106 82 168 5.2 8.7 0.00 0.00 0.00 33 1003.4
20260504202511 82 207 4.3 8.7 0.00 0.00 0.00 33 1003.5
20260504202010 82 172 6.1 8.7 0.00 0.00 0.00 33 1003.5
20260504201532 83 231 5.2 8.7 0.00 0.00 0.00 33 1003.7
20260504201011 83 217 4.3 7.8 0.00 0.00 0.00 34 1003.7
20260504200512 82 177 4.3 7.8 0.00 0.00 0.00 32 1003.8
20260504200030 82 215 5.2 7.8 0.00 0.00 0.00 33 1003.8
20260504195510 82 175 5.2 8.7 0.00 0.00 0.00 33 1003.8
20260504195012 82 191 3.5 7.8 0.00 0.00 0.00 34 1003.9
20260504194531 82 230 4.3 8.7 0.00 0.00 0.00 34 1004.0
20260504194012 82 160 5.2 7.8 0.00 0.00 0.00 34 1003.9
20260504193511 81 157 4.3 7.8 0.00 0.00 0.00 36 1003.9
20260504193031 82 246 4.3 7.8 0.00 0.00 0.00 39 1003.9
20260504192512 82 236 2.6 7.8 0.00 0.00 0.00 35 1004.0
20260504192010 82 211 3.5 7.8 0.00 0.00 0.00 36 1004.1
20260504191528 81 200 4.3 7.8 0.00 0.00 0.00 35 1004.2
20260504191011 82 215 3.5 5.2 0.00 0.00 0.00 35 1004.4
20260504190512 82 211 2.6 7.8 0.00 0.00 0.00 35 1004.3
20260504190030 82 172 2.6 7.8 0.00 0.00 0.00 34 1004.4
20260504185512 83 123 0.9 7.0 0.00 0.00 0.00 34 1004.5
20260504185017 82 146 5.2 7.0 0.00 0.00 0.00 33 1004.4
20260504184535 82 233 0.0 8.7 0.00 0.00 0.00 36 1004.5
20260504184012 82 248 4.3 8.7 0.00 0.00 0.00 38 1004.6
20260504183509 82 234 0.9 4.3 0.00 0.00 0.00 37 1004.6
20260504183032 82 11 0.9 7.8 0.00 0.00 0.00 39 1004.5
20260504182511 82 101 1.7 7.8 0.00 0.00 0.00 35 1004.5
20260504182013 81 176 5.2 7.8 0.00 0.00 0.00 34 1004.4
20260504181536 81 88 2.6 8.7 0.00 0.00 0.00 38 1004.4
20260504181015 81 154 3.5 8.7 0.00 0.00 0.00 36 1004.5
20260504180511 80 130 2.6 5.2 0.00 0.00 0.00 38 1004.7
20260504180032 79 190 0.9 5.2 0.00 0.00 0.00 39 1004.6
20260504175510 79 44 2.6 4.3 0.00 0.00 0.00 44 1004.5
20260504175011 79 56 1.7 4.3 0.00 0.00 0.00 41 1004.5
20260504174532 79 74 1.7 5.2 0.00 0.00 0.00 42 1004.6
20260504174011 78 76 0.9 5.2 0.00 0.00 0.00 42 1004.6
20260504173510 78 52 2.6 7.0 0.00 0.00 0.00 46 1004.6
20260504173033 78 87 2.6 7.0 0.00 0.00 0.00 46 1004.6
20260504172512 78 76 2.6 7.0 0.00 0.00 0.00 40 1004.7
20260504172014 78 69 2.6 7.8 0.00 0.00 0.00 45 1004.7
20260504171535 78 5 4.3 7.8 0.00 0.00 0.00 46 1004.7
20260504171014 77 29 3.5 7.8 0.00 0.00 0.00 42 1004.7
20260504170519 77 11 3.5 7.8 0.00 0.00 0.00 44 1004.6
20260504151010 69 323 2.6 7.0 0.00 0.00 0.00 55 1004.8
20260504150511 68 308 2.6 7.8 0.00 0.00 0.00 55 1004.9
20260504141011 66 285 2.6 10.4 0.00 0.00 0.00 59 1004.8
20260504140513 65 316 6.1 12.2 0.00 0.00 0.00 58 1004.7
20260504130513 60 334 1.7 4.3 0.00 0.00 0.00 72 1004.3
20260504110513 50 242 0.0 1.7 0.00 0.00 0.00 85 1004.0
20260504100514 47 355 0.0 0.0 0.00 0.00 0.00 81 1004.4
20260504081537 54 282 1.7 4.3 0.00 0.00 0.00 77 1004.9
20260504081014 52 300 0.9 4.3 0.00 0.00 0.00 76 1004.9
20260504080514 52 229 0.9 2.6 0.00 0.00 0.00 75 1005.1
20260504050516 59 218 0.0 1.7 0.00 0.00 0.00 67 1006.2
20260504045515 60 218 0.0 1.7 0.00 0.00 0.00 67 1006.4
20260504045014 61 218 0.0 2.6 0.00 0.00 0.00 68 1006.5
20260504044538 61 218 0.9 2.6 0.00 0.00 0.00 69 1006.5
20260504044015 61 218 1.7 2.6 0.00 0.00 0.00 66 1006.6
20260504043514 61 184 0.9 2.6 0.00 0.00 0.00 66 1006.6
20260504043041 61 189 0.9 6.1 0.00 0.00 0.00 66 1006.8
20260504042513 61 153 3.5 6.1 0.00 0.00 0.00 66 1006.8
20260504042013 60 136 0.9 1.7 0.00 0.00 0.00 67 1006.9
20260504041534 60 136 0.0 1.7 0.00 0.00 0.00 68 1007.0
20260504041014 59 136 0.0 1.7 0.00 0.00 0.00 70 1007.0
20260504040512 60 136 0.0 0.9 0.00 0.00 0.00 69 1007.1
20260504040048 60 136 0.0 1.7 0.00 0.00 0.00 69 1007.2
20260504035520 60 136 0.0 2.6 0.00 0.00 0.00 69 1007.2
20260504035017 60 136 0.9 2.6 0.00 0.00 0.00 69 1007.3
20260504034537 60 136 1.7 3.5 0.00 0.00 0.00 69 1007.3
20260504034013 60 145 1.7 3.5 0.00 0.00 0.00 69 1007.5
20260504033516 60 131 1.7 3.5 0.00 0.00 0.00 68 1007.6
20260504033051 61 118 1.7 3.5 0.00 0.00 0.00 67 1007.7
20260504032515 61 80 1.7 3.5 0.00 0.00 0.00 65 1007.7
20260504032014 61 62 0.9 2.6 0.00 0.00 0.00 64 1007.7
20260504031547 61 62 0.0 0.9 0.00 0.00 0.00 63 1007.7
20260504031015 61 62 0.0 0.9 0.00 0.00 0.00 64 1007.7
20260504030514 61 62 0.0 1.7 0.00 0.00 0.00 62 1007.7
20260504030040 61 62 0.0 1.7 0.00 0.00 0.00 63 1007.7
20260504025514 62 62 0.9 1.7 0.00 0.00 0.00 63 1007.6
20260504025019 62 62 0.9 1.7 0.00 0.00 0.00 62 1007.6
20260504024555 62 62 0.9 1.7 0.00 0.00 0.00 62 1007.6
20260504024017 62 85 0.9 2.6 0.00 0.00 0.00 62 1007.5
20260504023516 63 85 0.9 3.5 0.00 0.00 0.00 62 1007.5
20260504023050 63 85 0.9 2.6 0.00 0.00 0.00 61 1007.5
20260504022516 64 85 0.9 3.5 0.00 0.00 0.00 59 1007.5
20260504022017 65 88 1.7 3.5 0.00 0.00 0.00 59 1007.6
20260504021551 66 96 1.7 5.2 0.00 0.00 0.00 57 1007.4
20260504021015 67 104 2.6 5.2 0.00 0.00 0.00 55 1007.5
20260504020516 68 115 1.7 3.5 0.00 0.00 0.00 54 1007.4
20260504020048 68 115 1.7 3.5 0.00 0.00 0.00 52 1007.3
20260504015516 67 177 0.9 1.7 0.00 0.00 0.00 55 1007.2
20260504015016 67 177 0.0 1.7 0.00 0.00 0.00 58 1007.3
20260504014546 66 240 0.9 2.6 0.00 0.00 0.00 61 1007.2
20260504014018 66 240 1.7 2.6 0.00 0.00 0.00 66 1007.1
20260504013514 67 105 0.0 1.7 0.00 0.00 0.00 60 1007.2
20260504013049 67 105 0.9 2.6 0.00 0.00 0.00 59 1007.1
20260504012517 67 105 1.7 2.6 0.00 0.00 0.00 59 1007.0
20260504012014 68 105 1.7 3.5 0.00 0.00 0.00 58 1007.1
20260504011545 69 98 1.7 3.5 0.00 0.00 0.00 57 1007.2
20260504011016 70 98 1.7 2.6 0.00 0.00 0.00 55 1007.2
20260504010517 70 98 0.0 2.6 0.00 0.00 0.00 55 1007.2
20260504010050 70 98 0.9 3.5 0.00 0.00 0.00 55 1007.3
20260504005516 71 96 2.6 3.5 0.00 0.00 0.00 56 1007.3
20260504005015 72 97 2.6 3.5 0.00 0.00 0.00 54 1007.3
20260504004611 72 110 0.0 1.7 0.00 0.00 0.00 57 1007.3
20260504004014 72 110 0.0 1.7 0.00 0.00 0.00 52 1007.5
20260504003516 72 110 0.0 0.9 0.00 0.00 0.00 58 1007.4
20260504003043 72 110 0.0 1.7 0.00 0.00 0.00 55 1007.4
20260504002516 72 110 0.9 1.7 0.00 0.00 0.00 55 1007.4
20260504002014 73 110 0.9 2.6 0.00 0.00 0.00 55 1007.5
20260504001549 73 110 0.9 3.5 0.00 0.00 0.00 54 1007.4
20260504001017 73 113 1.7 3.5 0.00 0.00 0.00 52 1007.4
20260504000519 74 117 1.7 3.5 0.00 0.00 0.00 52 1007.4
20260504000055 74 105 1.7 3.5 0.00 0.00 0.00 51 1007.6
20260503235516 74 100 1.7 3.5 0.00 0.00 0.00 50 1007.7